When you browse on this site, cookies collect data to enhance your experience and personalize the content and advertising you see.
Visit our Privacy Policy to learn more. By continuing to use the site, you agree to this use of cookies and data.
  • In Österreich
  • Länderverzeichnis
  • Für 7 Tage
  • Wassertemperatur
  • Wetterkarte
  • News
  • Widgets
  • user-avatar
    Anmelden

    Stündliche Wetter Polostevichi

    Heute, 24 September, Dienstag

    Zeit Temperatur Niederschläge Wind Luftdruck Luftfeuchtigkeit
    00:00 +3°C° 0 mm 2 m/S 754 mmHg 72%
    01:00 +3°C° 0 mm 2 m/S 754 mmHg 74%
    02:00 +3°C° 0 mm 1 m/S 754 mmHg 77%
    03:00 +3°C° 0 mm 1 m/S 754 mmHg 78%
    04:00 +3°C° 0 mm 1 m/S 754 mmHg 79%
    05:00 +2°C° 0 mm 1 m/S 753 mmHg 81%
    06:00 +4°C° 0 mm 1 m/S 753 mmHg 76%
    07:00 +5°C° 0 mm 1 m/S 754 mmHg 71%
    08:00 +6°C° 0 mm 1 m/S 754 mmHg 66%
    09:00 +7°C° 0 mm 2 m/S 754 mmHg 59%
    10:00 +9°C° 0 mm 2 m/S 753 mmHg 53%
    11:00 +10°C° 0 mm 2 m/S 753 mmHg 46%
    12:00 +12°C° 0 mm 2 m/S 753 mmHg 43%
    13:00 +13°C° 0 mm 2 m/S 752 mmHg 40%
    14:00 +13°C° 0 mm 2 m/S 752 mmHg 38%
    15:00 +13°C° 0 mm 2 m/S 752 mmHg 42%
    16:00 +12°C° 0 mm 2 m/S 752 mmHg 47%
    17:00 +10°C° 0 mm 2 m/S 751 mmHg 51%
    18:00 +9°C° 0 mm 2 m/S 751 mmHg 55%
    19:00 +7°C° 0 mm 2 m/S 751 mmHg 59%
    20:00 +4°C° 0 mm 3 m/S 751 mmHg 63%
    21:00 +4°C° 0 mm 3 m/S 751 mmHg 64%
    22:00 +3°C° 0 mm 3 m/S 751 mmHg 66%
    23:00 +3°C° 0 mm 3 m/S 751 mmHg 67%

    Morgen, 25 September, Mittwoch

    Zeit Temperatur Niederschläge Wind Luftdruck Luftfeuchtigkeit
    00:00 +2°C° 0 mm 3 m/S 751 mmHg 68%
    01:00 +2°C° 0 mm 3 m/S 751 mmHg 69%
    02:00 +2°C° 0 mm 3 m/S 751 mmHg 70%
    03:00 +1°C° 0 mm 3 m/S 751 mmHg 71%
    04:00 +1°C° 0 mm 3 m/S 751 mmHg 72%
    05:00 +1°C° 0 mm 3 m/S 751 mmHg 72%
    06:00 +2°C° 0 mm 3 m/S 751 mmHg 69%
    07:00 +3°C° 0 mm 3 m/S 750 mmHg 65%
    08:00 +4°C° 0 mm 3 m/S 750 mmHg 61%
    09:00 +7°C° 0 mm 3 m/S 750 mmHg 57%
    10:00 +9°C° 0 mm 3 m/S 750 mmHg 54%
    11:00 +11°C° 0 mm 3 m/S 750 mmHg 50%
    12:00 +12°C° 0 mm 3 m/S 750 mmHg 49%
    13:00 +13°C° 0 mm 3 m/S 749 mmHg 48%
    14:00 +14°C° 0 mm 3 m/S 749 mmHg 47%
    15:00 +14°C° 0 mm 3 m/S 748 mmHg 52%
    16:00 +13°C° 0 mm 3 m/S 748 mmHg 56%
    17:00 +13°C° 0 mm 3 m/S 748 mmHg 60%
    18:00 +12°C° 0 mm 3 m/S 748 mmHg 63%
    19:00 +11°C° 0 mm 3 m/S 748 mmHg 65%
    20:00 +10°C° 0 mm 3 m/S 748 mmHg 67%
    21:00 +9°C° 0 mm 3 m/S 748 mmHg 68%
    22:00 +9°C° 0 mm 3 m/S 747 mmHg 68%
    23:00 +9°C° 0 mm 3 m/S 747 mmHg 69%

    übermorgen, 26 September, Donnerstag

    Zeit Temperatur Niederschläge Wind Luftdruck Luftfeuchtigkeit
    00:00 +9°C° 0.1 mm 3 m/S 747 mmHg 70%
    01:00 +8°C° 0.1 mm 3 m/S 747 mmHg 71%
    02:00 +8°C° 0.1 mm 3 m/S 747 mmHg 72%
    03:00 +8°C° 0 mm 3 m/S 747 mmHg 74%
    04:00 +7°C° 0 mm 3 m/S 747 mmHg 77%
    05:00 +7°C° 0 mm 3 m/S 747 mmHg 79%
    06:00 +7°C° 0 mm 3 m/S 747 mmHg 79%
    07:00 +8°C° 0 mm 3 m/S 747 mmHg 79%
    08:00 +9°C° 0 mm 3 m/S 747 mmHg 79%
    09:00 +11°C° 0 mm 3 m/S 747 mmHg 76%
    10:00 +13°C° 0 mm 3 m/S 748 mmHg 73%
    11:00 +16°C° 0 mm 3 m/S 748 mmHg 70%
    12:00 +17°C° 0 mm 3 m/S 748 mmHg 68%
    13:00 +17°C° 0 mm 2 m/S 748 mmHg 66%
    14:00 +18°C° 0 mm 2 m/S 747 mmHg 64%
    15:00 +17°C° 0.1 mm 3 m/S 748 mmHg 69%
    16:00 +17°C° 0.1 mm 3 m/S 748 mmHg 74%
    17:00 +16°C° 0.1 mm 3 m/S 748 mmHg 78%
    18:00 +13°C° 0 mm 3 m/S 748 mmHg 84%
    19:00 +12°C° 0 mm 2 m/S 748 mmHg 89%
    20:00 +10°C° 0 mm 2 m/S 749 mmHg 94%
    21:00 +9°C° 0 mm 2 m/S 749 mmHg 95%
    22:00 +9°C° 0 mm 2 m/S 749 mmHg 95%
    23:00 +9°C° 0 mm 2 m/S 750 mmHg 96%

    27 September, Freitag

    Zeit Temperatur Niederschläge Wind Luftdruck Luftfeuchtigkeit
    00:00 +8°C° 0 mm 2 m/S 750 mmHg 96%
    01:00 +8°C° 0 mm 2 m/S 750 mmHg 96%
    02:00 +8°C° 0 mm 2 m/S 750 mmHg 96%
    03:00 +8°C° 0 mm 2 m/S 750 mmHg 95%
    04:00 +8°C° 0 mm 2 m/S 751 mmHg 95%
    05:00 +8°C° 0 mm 2 m/S 751 mmHg 95%
    06:00 +8°C° 0 mm 2 m/S 751 mmHg 93%
    07:00 +9°C° 0 mm 2 m/S 751 mmHg 91%
    08:00 +10°C° 0 mm 2 m/S 751 mmHg 89%
    09:00 +12°C° 0 mm 2 m/S 751 mmHg 82%
    10:00 +13°C° 0 mm 2 m/S 752 mmHg 75%
    11:00 +15°C° 0 mm 2 m/S 752 mmHg 68%
    12:00 +15°C° 0 mm 2 m/S 752 mmHg 65%
    13:00 +16°C° 0 mm 1 m/S 752 mmHg 63%
    14:00 +16°C° 0 mm 1 m/S 751 mmHg 60%
    15:00 +16°C° 0 mm 1 m/S 751 mmHg 63%
    16:00 +15°C° 0 mm 1 m/S 751 mmHg 66%
    17:00 +15°C° 0 mm 1 m/S 751 mmHg 69%
    18:00 +13°C° 0 mm 1 m/S 751 mmHg 74%
    19:00 +12°C° 0 mm 2 m/S 751 mmHg 80%
    20:00 +9°C° 0 mm 2 m/S 752 mmHg 86%
    21:00 +9°C° 0 mm 2 m/S 752 mmHg 87%
    22:00 +8°C° 0 mm 2 m/S 752 mmHg 89%
    23:00 +8°C° 0 mm 2 m/S 752 mmHg 91%

    28 September, Samstag

    Zeit Temperatur Niederschläge Wind Luftdruck Luftfeuchtigkeit
    00:00 +8°C° 0 mm 2 m/S 752 mmHg 92%
    01:00 +8°C° 0 mm 2 m/S 752 mmHg 93%
    02:00 +8°C° 0 mm 2 m/S 752 mmHg 94%
    03:00 +8°C° 0 mm 2 m/S 751 mmHg 94%
    04:00 +8°C° 0 mm 2 m/S 751 mmHg 94%
    05:00 +8°C° 0 mm 3 m/S 751 mmHg 95%
    06:00 +8°C° 0 mm 3 m/S 750 mmHg 92%
    07:00 +9°C° 0 mm 3 m/S 750 mmHg 89%
    08:00 +10°C° 0 mm 4 m/S 750 mmHg 87%
    09:00 +10°C° 0.6 mm 4 m/S 749 mmHg 88%
    10:00 +11°C° 0.6 mm 4 m/S 749 mmHg 89%
    11:00 +11°C° 0.6 mm 4 m/S 749 mmHg 90%
    12:00 +13°C° 0.7 mm 4 m/S 749 mmHg 87%
    13:00 +14°C° 0.7 mm 4 m/S 748 mmHg 83%
    14:00 +17°C° 0.7 mm 4 m/S 748 mmHg 79%
    15:00 +17°C° 0.4 mm 4 m/S 748 mmHg 80%
    16:00 +17°C° 0.4 mm 3 m/S 748 mmHg 80%
    17:00 +17°C° 0.4 mm 3 m/S 747 mmHg 80%
    18:00 +16°C° 0 mm 2 m/S 747 mmHg 84%
    19:00 +14°C° 0 mm 2 m/S 747 mmHg 87%
    20:00 +13°C° 0 mm 2 m/S 747 mmHg 90%
    21:00 +13°C° 0 mm 2 m/S 747 mmHg 91%
    22:00 +12°C° 0 mm 2 m/S 747 mmHg 91%
    23:00 +12°C° 0 mm 2 m/S 747 mmHg 91%

    29 September, Sonntag

    Zeit Temperatur Niederschläge Wind Luftdruck Luftfeuchtigkeit
    00:00 +12°C° 0.1 mm 2 m/S 747 mmHg 92%
    01:00 +12°C° 0.1 mm 2 m/S 747 mmHg 93%
    02:00 +12°C° 0.1 mm 2 m/S 747 mmHg 94%
    03:00 +10°C° 0.2 mm 2 m/S 747 mmHg 94%
    04:00 +10°C° 0.2 mm 2 m/S 746 mmHg 95%
    05:00 +10°C° 0.2 mm 2 m/S 746 mmHg 96%
    06:00 +10°C° 0.1 mm 3 m/S 746 mmHg 93%
    07:00 +11°C° 0.1 mm 3 m/S 746 mmHg 91%
    08:00 +12°C° 0.1 mm 4 m/S 746 mmHg 89%
    09:00 +13°C° 0.1 mm 4 m/S 746 mmHg 83%
    10:00 +15°C° 0.1 mm 5 m/S 746 mmHg 77%
    11:00 +16°C° 0.1 mm 5 m/S 747 mmHg 71%
    12:00 +16°C° 0.2 mm 5 m/S 746 mmHg 67%
    13:00 +17°C° 0.2 mm 6 m/S 746 mmHg 64%
    14:00 +17°C° 0.2 mm 6 m/S 746 mmHg 61%
    15:00 +16°C° 0.1 mm 5 m/S 746 mmHg 65%
    16:00 +17°C° 0.1 mm 4 m/S 746 mmHg 70%
    17:00 +16°C° 0.1 mm 3 m/S 746 mmHg 74%
    18:00 +14°C° 0.1 mm 3 m/S 746 mmHg 78%
    19:00 +14°C° 0.1 mm 2 m/S 746 mmHg 82%
    20:00 +13°C° 0.1 mm 2 m/S 746 mmHg 86%
    21:00 +12°C° 0 mm 2 m/S 746 mmHg 86%
    22:00 +12°C° 0 mm 2 m/S 746 mmHg 85%
    23:00 +12°C° 0 mm 2 m/S 746 mmHg 85%
    Mehr zeigen